Flag for U.S.A. Weather past 2 weeks in Dallas, Texas, U.S.A.

Now
85 °F

Passing clouds.


Feels Like: 90 °F
Forecast: 77 / 92 °F
Wind: 13 mph from South

Location: Dallas Love Field

Current Time: Jul 5, 2015 at 12:17:20 AM

Latest Report: Jul 4, 2015 at 11:53 PM


Visibility: 10 mi

Pressure: 29.94 "Hg

Humidity: 63%

Dew point: 71 °F

Location of DallasLocation

Historic Weather in Dallas — Graph

°F

Dallas temperature yesterday

Maximum temperature yesterday: 94 °F (at 3:53 PM)
Minimum temperature yesterday: 79 °F (at 6:53 AM)
Average temperature yesterday: 87 °F

Past Weeks' High & Low Weather Summary

 TemperatureHumidityPressure
High96 °F (Jun 29, 5:53 PM)91% (Jun 21, 7:53 AM)30.16 "Hg (Jun 21, 7:53 AM)
Low71 °F (Jun 28, 4:53 AM)26% (Jun 28, 6:53 PM)29.85 "Hg (Jul 2, 7:53 PM)
Average85 °F62%29.98 "Hg
* Reported Jun 19 10:53 PM — Jul 4 10:53 PM, Dallas, Weather by CustomWeather, © 2015

Note: Actual official high and low records may vary slightly from our data, if they occured in-between our weather recording intervals... More about our weather records

Advertising

Dallas weather history for previous 24 hours

 ConditionsComfort  
Time TempWeatherWind HumidityBarometerVisibility
10:53 PM
Sat, Jul 4
86 °FPassing clouds.13 mph59%29.94 "Hg10 mi
9:53 PM88 °FPassing clouds.14 mph55%29.91 "Hg10 mi
8:53 PM89 °FPartly sunny.12 mph53%29.88 "Hg10 mi
7:53 PM91 °FPartly sunny.9 mph49%29.86 "Hg10 mi
6:53 PM92 °FPartly sunny.9 mph44%29.87 "Hg10 mi
5:53 PM94 °FPartly sunny.12 mph41%29.86 "Hg10 mi
4:53 PM94 °FBroken clouds.9 mph43%29.89 "Hg10 mi
3:53 PM94 °FScattered clouds.10 mph44%29.90 "Hg10 mi
2:53 PM93 °FScattered clouds.7 mph46%29.91 "Hg10 mi
1:53 PM91 °FScattered clouds.12 mph52%29.93 "Hg10 mi
12:53 PM91 °FBroken clouds.10 mph54%29.94 "Hg10 mi
11:53 AM89 °FScattered clouds.7 mph57%29.95 "Hg10 mi
10:53 AM86 °FScattered clouds.10 mph63%29.96 "Hg10 mi
9:53 AM83 °FScattered clouds.8 mph70%29.96 "Hg10 mi
8:53 AM81 °FPartly sunny.8 mph72%29.95 "Hg10 mi
7:53 AM80 °FPartly sunny.7 mph74%29.95 "Hg10 mi
6:53 AM79 °FPartly cloudy.5 mph77%29.94 "Hg10 mi
5:53 AM80 °FPartly cloudy.5 mph74%29.93 "Hg10 mi
4:53 AM80 °FPassing clouds.5 mph76%29.91 "Hg10 mi
3:53 AM81 °FPassing clouds.8 mph74%29.91 "Hg10 mi
2:53 AM83 °FPassing clouds.10 mph68%29.91 "Hg10 mi
1:53 AM83 °FPassing clouds.7 mph68%29.91 "Hg10 mi
12:53 AM83 °FPartly cloudy.9 mph65%29.91 "Hg10 mi
Weather by CustomWeather, © 2015

See weather overviewHow to use our weather pages